Weather in Karymsk

Russia / Irkutsk Oblast     54°06′10″N   101°50′26″E
temp.,
°C
wind,
m/s
gust,
m/s
humid.,
%
clouds,
%
prec.,
mm/h
press.,
hPa
HPBL,
m
1 march, mon
mon123:00−22se239599 0.0 103849
02:00−22se389097 0.0 1036205
05:00−24se1295100 0.0 103320
08:00−24se1293100 0.0 103220
11:00−19se2387100 0.0 1029224
14:00−15se248898 0.0 1024344
17:00−15ese359199 0.0 1020320
20:00−18se249599 0.0 1019102
2 march, tue
tue223:00−17ese1294100 0.0 101641
02:00−17se2295100 0.0 101446
05:00−16ese1197100 0.5 101221
08:00−17n0196100 0.6 101220
11:00−13nnw1293100 0.2 1011248
14:00−11n2392100 0.4 1011319
17:00−11nne2393100 0.1 1011311
20:00−13n2496100 0.3 1014132
3 march, wed
wed323:00−14n3596100 0.8 1015211
02:00−16n2497100 1.2 1015133
05:00−17n2597100 0.4 1016175
08:00−19n2597100 0.6 1018197
11:00−17n3595100 0.3 1018276
14:00−15n3490100 0.3 1019426
17:00−15n3587100 0.0 1021556
20:00−20nne2394100 0.0 102634
4 march, thu
thu423:00−24nne2390100 0.0 102948
02:00−27nne2293100 0.0 103019
05:00−26nne1192100 0.0 103219
08:00−27ne1189100 0.0 103519
11:00−21ese128593 0.0 1034227
14:00−15se238589 0.0 1033454
17:00−15se349297 0.0 1032336
20:00−21se369674 0.0 1035110
5 march, fri
fri523:00−20se379475 0.0 1035182
02:00−20se3109660 0.0 1034199
05:00−21se4109427 0.0 1033240
08:00−21se4109539 0.0 1032244
11:00−17se489484 0.0 1029278
14:00−11se489391 0.0 1024334
17:00−9se499392 0.0 1021353
20:00−12se4119478 0.0 1022292